カタログに戻る

NSS 9

運用中通信GEO
NORAD 33749·PAYLOAD·🇱🇺 Luxembourg

打ち上げ Feb 12, 2009 から Guiana Space Centre

Loading…

TLE

最新Source: CelesTrak SupGP

元期: Sep 13, 2026, 23:30 UTC

1 33749C 09008A   26256.97916667  .00000161  00000+0  00000+0 0  2567
2 33749   1.4849  81.6177 0002119  76.3042  10.6133  1.00270644    18

AllMySatでNSS 9をリアルタイム追跡

Download on the App Store